Location: Boussy-Saint-Antoine
(48.6830°N, 2.5330°E)
Time: 09:15:25
(UTC+02:00)

KKS-1 - Pass Details

Date: 24 July 2019
Orbit: 637 x 650 km, 98.3° (Epoch: 23 August)

Event Time Altitude Azimuth Distance (km) Brightness Sun altitude
Rises 22:10:43 0° 5° (N) 2,952 ? -5.1°
Reaches altitude 10° 22:13:09 10° 354° (N) 2,038 ? -5.4°
Maximum altitude 22:16:55 28° 296° (WNW) 1,200 ? -5.9°
Drops below altitude 10° 22:20:41 10° 237° (WSW) 2,029 ? -6.4°
Sets 22:23:06 0° 226° (SW) 2,935 ? -6.7°
